sat.trackr.live / text

‹ back to catalog

SHIKONGXING 01

NORAD 65712 · 2025-214A

PAYLOAD ACTIVE UNKNOWN

§ Identity

Operator
Country
PRC
Launch date
2025-09-24
Launch site
YSLA
Launch vehicle
Mass (kg)
RCS (m²)

External: N2YO · Heavens-Above · Gunter

§ Orbital elements

Epoch: 2026-05-25T02:24:03.913920Z

Period
96.47 min
Inclination
49.9882°
Eccentricity
0.0013102
Mean motion
14.92709233 rev/d
Perigee alt
580.4 km
Apogee alt
598.6 km
Semi-major
6,967.6 km
B*
2.0648e-4
RAAN
42.5745°
Arg perigee
158.9549°
Mean anomaly
201.1935°
Rev number
3,625

§ Raw data

SHIKONGXING 011 65712U 25214A   26145.10004530  .00001910  00000+0  20648-3 0  99992 65712  49.9882  42.5745 0013102 158.9549 201.1935 14.92709233 36255

JSON: /api/v1/satellites/65712 · /tle

For live sub-satellite position, see the globe view (requires WebGL).

§ Visibility from observer

Set your observer location to see the next 7 days of passes ≥ 10°. The values pass through the URL so the page stays shareable.

No JS? Fill the form by hand. The geolocation button needs JavaScript.